Content
SEND FEEDBACK

Daily
Averages
Monthly
Summary
United States of America

WALES, ALASKA


Home > North America > United States > Alaska
Elevation: 27 feet     Latitude: 65 34N     Longitude: 167 55W

WEATHER
 
SELECT A DAY
Number of Records: 223,920;   Date Range: 1/1/95 - 12/17/14
 
SHARE

PRINT THIS DATA

[ ← Previous Day ]
WEATHER ALMANAC - JANUARY 23, 2013
[ Next Day → ]
[ °C ]   °F
Weather ElementAverageHighLow
Temperature0.8 °F4.1 °F (11:55 am)-4.4 °F (11:55 pm)
Dewpoint-3.5 °F-0.6 °F (7:55 am)-8.9 °F (11:55 pm)
Humidity82.4 %84 % (1:55 am)77 % (11:55 am)
Barometer29.78 in29.91 in (10:55 pm)29.71 in (4:55 am)
Wind Speed32.9 mph36.8 mph (11:55 am)
Wind Gust42.6 mph (11:55 am)
Weather ElementAverage
Visibility9.4 mi
Wind DirectionNNE (34.5 °)

Weather ElementTotal
Precipitation---
Heating Degree Days65.2 (Base 65)
Averaged from 22 records on January 23, 2013
WEATHER CONDITIONS BREAKOUT
WIND DIRECTION BREAKOUT
WEATHER BY HOUR - JANUARY 23, 2013
[ °C ]   °F
Local TimeTemperatureDewpointHumidityBarometerVisibilityWind DirectionWind SpeedGust SpeedPrecipitationEventsConditions
1:55 AM2.3 °F-1.5 °F84 %29.73 in10.0 miNNE (30°)34.5 mphClear
3:55 AM1.8 °F-2.4 °F83 %29.72 in10.0 miNE (40°)33.4 mph36.8 mphPartly Cloudy
4:55 AM1.6 °F-2.6 °F83 %29.71 in10.0 miNNE (30°)32.2 mph34.5 mphMostly Cloudy
5:55 AM2.3 °F-2.0 °F82 %29.72 in10.0 miNNE (30°)34.5 mphMostly Cloudy
6:55 AM3.0 °F-0.8 °F84 %29.73 in10.0 miNNE (30°)33.4 mphScattered Clouds
7:55 AM3.4 °F-0.6 °F84 %29.73 in10.0 miNNE (30°)32.2 mphMostly Cloudy
8:55 AM3.4 °F-0.6 °F84 %29.72 in10.0 miNNE (30°)34.5 mphMostly Cloudy
9:55 AM3.4 °F-0.6 °F84 %29.72 in10.0 miNNE (30°)34.5 mphOvercast
10:55 AM3.4 °F-0.9 °F82 %29.73 in10.0 miNNE (20°)35.7 mphMostly Cloudy
11:55 AM4.1 °F-1.7 °F77 %29.73 in5.0 miNE (50°)36.8 mph42.6 mphMostly Cloudy
12:55 PM3.6 °F-1.3 °F80 %29.73 in6.0 miNE (40°)35.7 mphMostly Cloudy
1:55 PM1.6 °F-2.2 °F84 %29.76 in5.0 miNE (40°)33.4 mphOvercast
2:55 PM0.7 °F-3.3 °F83 %29.78 in10.0 miNNE (30°)32.2 mphOvercast
3:55 PM0.3 °F-3.5 °F84 %29.78 in10.0 miNNE (30°)32.2 mphOvercast
4:55 PM0.0 °F-4.4 °F82 %29.77 in10.0 miNE (40°)35.7 mphOvercast
5:55 PM0.0 °F-4.4 °F82 %29.81 in10.0 miNE (40°)33.4 mphOvercast
6:55 PM-0.8 °F-4.9 °F83 %29.82 in10.0 miNE (40°)32.2 mphMostly Cloudy
7:55 PM-2.2 °F-6.3 °F83 %29.83 in10.0 miNE (40°)29.9 mphScattered Clouds
8:55 PM-2.9 °F-7.2 °F82 %29.85 in10.0 miNNE (30°)32.2 mphPartly Cloudy
9:55 PM-3.8 °F-8.3 °F81 %29.87 in10.0 miNNE (30°)29.9 mphScattered Clouds
10:55 PM-4.0 °F-8.7 °F80 %29.91 in10.0 miNE (40°)25.3 mphClear
11:55 PM-4.4 °F-8.9 °F81 %29.91 in10.0 miNE (40°)29.9 mphMostly Cloudy
Hourly data recorded from PATC, located miles away from Wales, Alaska







STORIES FROM OUR PARTNERS